Mossel Bay, South Africa

8:26 AM SAST on September 04, 2015 (GMT +0200)
IWESTERN176 | | Change Station
CLOSE
Current Station
Personal Weather Station
Location: George, WESTERN CAPE
Elevation: 784 ft
Nearby Weather Stations

Elev 784 ft 33.96 °S, 22.47 °E | Updated 35 seconds ago

Clear
Clear
53.5 °F
Feels Like 53.5 °F
N
0.0
Wind Variable Wind from SW
Gusts 1.3 mph

Today
High -- | Low -- °F
--% Chance of Precip.
Yesterday
High -- | Low -- °F
Precip. -- in
6:46 AM 6:15 PM
Waning Gibbous, 62% visible
Pressure 30.39 in
Visibility -9999.0 miles
Clouds
Dew Point 46 °F
Humidity 76%
Rainfall 0.00 in
Snow Depth Not available.
UV Not available.
Pollen Not available.
Air Quality Not available.
Flu Activity Not available.
METAR FAGG 040600Z 06004KT CAVOK 12/07 Q1029
Pressure 30.39 in
Visibility -9999.0 miles
Clouds
Dew Point 46 °F
Humidity 76%
Rainfall 0.00 in
Snow Depth Not available.
UV Not available.
Pollen Not available.
Air Quality Not available.
Flu Activity Not available.
METAR FAGG 040600Z 06004KT CAVOK 12/07 Q1029

10-Day Weather Forecast

×

Almanac

Astronomy

Sep. 04, 2015 Rise Set
Actual Time
Civil Twilight
Nautical Twilight
Astronomical Twilight
Moon
Length of Visible Light
Length of Day
Tomorrow will be .
, % of the Moon is Illuminated

Today's Extremes

Country Highs Country Lows

Community

WunderPhotos

Upload Photos

1,852,132 photos uploaded!

WunderBlogs® & News

Nearby

Air Quality

  Air Quality AQ Index Pollutant
Not available.

Snow Depth

Station Depth Elevation

Earthquake Activity

City Distance Mag. Time & Date
Minimum magnitude displayed is 2.5.

Coastal Water Temperatures

Place Temperature

Stations

Nearby Weather Stations

Station Location Temp. Windchill Dew Point Humidity Wind Precip. Elev Updated Type